Regional Weather Roundup
Issued by NWS

Home | Current Version | Previous Version | Graphics & Text | Print | Product List | Glossary On
Versions: 1 2 3 4 5 6 7 8 9 10 11 12 13 14 15 16 17 18 19 20 21 22 23 24 25 26 27 28 29 30 31 32 33 34 35 36 37 38 39 40 41 42 43 44 45 46 47 48 49 50
000
ASUS43 KIND 072309
RWRIN

WEATHER ROUNDUP FOR INDIANA
NATIONAL WEATHER SERVICE INDIANAPOLIS IN
700 PM EDT TUE JUL 07 2015

NOTE: "FAIR" INDICATES FEW OR NO CLOUDS BELOW 12,000 FEET WITH NO
SIGNIFICANT WEATHER AND/OR OBSTRUCTIONS TO VISIBILITY.

* - STATION DOES NOT REPORT WEATHER SUCH AS PRECIPITATION OR FOG.

+ - STATION NOT QUALITY CONTROLLED BY THE NATIONAL WEATHER SERVICE.
    USE DATA WITH CAUTION...ESPECIALLY DEWPOINT AND RELATIVE
    HUMIDITY OBSERVATIONS.

INZ001>003-010>013-019-020-080000-
NORTHWEST INDIANA

CITY           SKY/WX    TMP DP  RH WIND       PRES   REMARKS
GARY /AIRPORT/ MOSUNNY   64  50  59 NE14G30   30.07S
KNOX *+        SUNNY     63  46  55 N18G25    30.02S
LA PORTE +     SUNNY     65  50  58 N18G30    30.04S
MICHIGAN CITY+ SUNNY     63  46  55 N15G26    30.05S
MONTICELLO +   PTSUNNY   66  51  58 N18G26    30.00F
RENSSELAER +   MOSUNNY   66  52  59 N12G18    30.03S
VALPARAISO     SUNNY     64  48  56 N16G24    30.04S

$$

LMZ046-743>745-080000-
SOUTHERN LAKE MICHIGAN

STATION/POSITION TIME  TEMP    WIND        PRES    WAVE
                       AIR SEA DIR/SP/G            HT
                 (UTC) (F)     (DEG/KT/KT) (MB)    (FT)
BURNS HARBOR     2300   62      30/ 17/ 22 1017.9S
MICHIGAN CITY    2300   61     350/ 27/ 31   N/A
5NW MICH CITY    2300   61 65   20/ 19/ 25   N/A     9

$$

INZ004-005-014>016-021>024-080000-
NORTH CENTRAL INDIANA

CITY           SKY/WX    TMP DP  RH WIND       PRES   REMARKS
ELKHART        SUNNY     66  50  55 NW12      30.00S
GOSHEN         SUNNY     66  54  65 NW14      29.99R
LOGANSPORT +   CLOUDY    66  46  48 N15       30.01R
PERU/GRISSOM   CLOUDY    67  54  61 NW17G23   29.97S
ROCHESTER +    MOSUNNY   68  52  56 NW14G20   30.00S
SOUTH BEND     SUNNY     65  49  56 N18G25    30.02R
WARSAW +         N/A     66  52  59 NW13      29.99R

$$

INZ006>009-017-018-025>027-080000-
NORTHEAST INDIANA

CITY           SKY/WX    TMP DP  RH WIND       PRES   REMARKS
ANGOLA *+      CLOUDY    70  61  73 N5        29.96R
AUBURN +       CLOUDY    70  61  73 NW9       29.97R
FORT WAYNE     CLOUDY    70  62  76 N9        29.96S
HUNTINGTON +   CLOUDY    69  60  74 N7        29.96S

$$

INZ028-029-035-036-043>045-051>053-080000-
WEST CENTRAL INDIANA

CITY           SKY/WX    TMP DP  RH WIND       PRES   REMARKS
CRAWFORDSVL +  CLOUDY    63  55  74 N7        30.00S
GREENCASTLE +  CLOUDY    64  57  77 N8        30.00S
LAFAYETTE      CLOUDY    66  49  54 N17G25    30.00S
TERRE HAUTE    CLOUDY    66  63  90 N9        30.00S

$$

INZ030>032-037>040-046>048-054>057-064-065-080000-
CENTRAL INDIANA

CITY           SKY/WX    TMP DP  RH WIND       PRES   REMARKS
CP ATTERBURY + CLOUDY    68  64  88 NW8       29.98R
FRANKFORT +    PTSUNNY   67  57  69 NW9G18    30.01S
GREENWOOD *+   CLOUDY    66  63  88 N9        29.98R
INDIANAPOLIS   CLOUDY    66  62  87 N14       29.98R
-EAGLE CREEK   CLOUDY    66  63  90 N7        29.98R
KOKOMO *+      CLOUDY    68  55  64 NW13G20   29.98R
MARION +       CLOUDY    67  60  76 N9        29.97S
MT COMFORT *+  CLOUDY    66 N/A N/A NW7       29.98R
SHELBYVILLE    LGT RAIN  69  66  90 NW14G21   29.96R
ZIONSVILLE +   CLOUDY    67  60  76 N7        29.99S

$$

INZ033-034-041-042-049-050-058-059-080000-
EAST CENTRAL INDIANA

CITY           SKY/WX    TMP DP  RH WIND       PRES   REMARKS
MUNCIE         CLOUDY    67  64  90 N10       29.96S

$$

INZ060-061-067>069-081>083-085>088-080000-
SOUTHWEST INDIANA

CITY           SKY/WX    TMP DP  RH WIND       PRES   REMARKS
EVANSVILLE     CLOUDY    77  73  87 SW6       29.96F
HUNTINGBURG *+ CLOUDY    75  70  83 SW5       29.97S
WASHINGTON +   RAIN      72  68  88 NW6       29.97R

$$

INZ062-063-066-070>080-084-089>092-080000-
SOUTH CENTRAL AND SOUTHEAST INDIANA

CITY           SKY/WX    TMP DP  RH WIND       PRES   REMARKS
BLOOMINGTON    LGT RAIN  69  67  93 N9        29.98R
MADISON *+     CLOUDY    73  70  88 SW8       30.00S
NORTH VERNON + RAIN      73  73 100 SW10G16   29.97S
SEYMOUR +      LGT RAIN  73  73 100 SW8       29.97R

$$




USA.gov is the U.S. government's official web portal to all federal, state and local government web resources and services.